Regional Weather Roundup
Issued by NWS

Home | Current Version | Previous Version | Text Only | Print | Product List | Glossary Off
Versions: 1 2 3 4 5 6 7 8 9 10 11 12 13 14 15 16 17 18 19 20 21 22 23 24 25 26 27 28 29 30 31 32 33 34 35 36 37 38 39 40 41 42 43 44 45 46 47 48 49 50

000
ASUS45 KBOI 210110
RWRID

IDAHO REGIONAL WEATHER ROUNDUP
NATIONAL WEATHER SERVICE BOISE ID
600 PM MST MON FEB 20 2017

NOTE: "FAIR" INDICATES FEW OR NO CLOUDS BELOW 12000 FEET
WITH NO SIGNIFICANT WEATHER AND/OR OBSTRUCTIONS TO VISIBILITY

IDZ012-014-210200-
SOUTHWEST IDAHO


CITY           SKY/WX    TMP DP  RH WIND       PRES   REMARKS
BOISE          CLOUDY    51  40  65 E6        29.78F
CALDWELL       CLOUDY    52  42  69 SE8       29.78S
MOUNTAIN HOME  CLOUDY    53  40  61 S7        29.81S
$$

IDZ016-017-210200-
SOUTHCENTRAL IDAHO


CITY           SKY/WX    TMP DP  RH WIND       PRES   REMARKS
BURLEY         LGT RAIN  50  38  63 S13G22    29.88R
JEROME           N/A    N/A N/A N/A MISG      29.88R
TWIN FALLS     CLOUDY    49  35  58 S13G22    29.87R
$$

IDZ019>023-210200-
SOUTHEAST IDAHO


CITY           SKY/WX    TMP DP  RH WIND       PRES   REMARKS
IDAHO FALLS    CLOUDY    42  36  79 S24G36    29.89S
POCATELLO      LGT RAIN  44  38  79 S20G26    29.92S
REXBURG        CLOUDY    42  36  79 SW21G32   29.87S
$$

IDZ006-010-011-018-031-032-210200-
CENTRAL IDAHO MOUNTAINS


CITY           SKY/WX    TMP DP  RH WIND       PRES   REMARKS
MCCALL         CLOUDY    39  30  70 S16G26    29.75R WCI  30
HAILEY         LGT RAIN  36  36 100 SE10      29.90R WCI  28
STANLEY          N/A     34  33  96 SE6       29.82R WCI  29
SALMON         CLOUDY    43  34  70 S15       29.76R
CHALLIS        LGT RAIN  36  35  96 NW6       29.79R WCI  31
$$

IDZ002-004-006-007-026-210200-
NORTHERN IDAHO


CITY           SKY/WX    TMP DP  RH WIND       PRES   REMARKS
LEWISTON       MOCLDY    53  42  66 CALM      29.67R
LOWELL           N/A     42  37  82 CALM      29.67R
COEUR D`ALENE  CLOUDY    41  35  79 SW12G24   29.60R
MULLAN PASS    LGT SNOW  31  31 100 SW23G40   29.57R VSB 3/4 WCI  18
$$



USA.gov is the U.S. government's official web portal to all federal, state and local government web resources and services.